Flag for U.S.A. Weather past 2 weeks in Anchorage, Alaska, U.S.A.

40 °F

Low clouds.

Feels Like: 38 °F
Forecast: 41 / 46 °F
Wind: 3 mph from East

Location: Lake Hood Seaplane

Current Time: Oct 4, 2015 at 3:53:14 AM

Latest Report: Oct 4, 2015 at 2:53 AM

Visibility: 10 mi

Pressure: 30.27 "Hg

Humidity: 93%

Dew point: 38 °F

Location of AnchorageLocation

Historic Weather in Anchorage — Graph


Anchorage temperature yesterday

Maximum temperature yesterday: 46 °F (at 3:53 PM)
Minimum temperature yesterday: 39 °F (at 12:53 AM)
Average temperature yesterday: 43 °F

Past Weeks' High & Low Weather Summary

High53 °F (Sep 22, 5:53 PM)100% (Sep 27, 5:53 AM)30.50 "Hg (Sep 27, 5:53 AM)
Low29 °F (Sep 24, 6:53 AM)29% (Sep 23, 4:53 PM)28.88 "Hg (Sep 29, 8:53 AM)
Average42 °F75%29.82 "Hg
* Reported Sep 19 1:53 AM — Oct 4 1:53 AM, Anchorage, Weather by CustomWeather, © 2015

Note: Actual official high and low records may vary slightly from our data, if they occured in-between our weather recording intervals... More about our weather records


Anchorage weather history for previous 24 hours

Time TempWeatherWind HumidityBarometerVisibility
1:53 AM
Sun, Oct 4
40 °FLow clouds.3 mph93%30.28 "Hg10 mi
12:53 AM40 °FLow clouds.No wind93%30.27 "Hg10 mi
11:53 PM
Sat, Oct 3
40 °FLow clouds.3 mph97%30.27 "Hg10 mi
10:53 PM41 °FLow clouds.5 mph93%30.26 "Hg10 mi
9:53 PM42 °FLow clouds.6 mph96%30.24 "Hg10 mi
8:53 PM44 °FLight rain. Low clouds.No wind93%30.24 "Hg10 mi
7:53 PM45 °FLight rain. Mostly cloudy.3 mph93%30.23 "Hg10 mi
6:53 PM45 °FMostly cloudy.3 mph90%30.22 "Hg10 mi
5:53 PM45 °FLight rain. Mostly cloudy.No wind90%30.22 "Hg10 mi
4:53 PM45 °FLight rain. Mostly cloudy.No wind90%30.22 "Hg10 mi
3:53 PM46 °FLight rain. Overcast.6 mph86%30.22 "Hg10 mi
2:53 PM45 °FMostly cloudy.5 mph86%30.23 "Hg10 mi
1:53 PM45 °FLight rain. Overcast.5 mph90%30.24 "Hg10 mi
12:53 PM44 °FMostly cloudy.6 mph89%30.24 "Hg10 mi
11:53 AM44 °FLight rain. Mostly cloudy.5 mph89%30.26 "Hg10 mi
10:53 AM43 °FLight rain. Mostly cloudy.3 mph89%30.27 "Hg10 mi
9:53 AM43 °FLight rain. Mostly cloudy.No wind89%30.27 "Hg10 mi
8:53 AM42 °FLight rain. Overcast.5 mph92%30.29 "Hg10 mi
7:53 AM42 °FLight rain. Overcast.5 mph89%30.29 "Hg10 mi
6:53 AM42 °FLight rain. Overcast.No wind89%30.30 "Hg10 mi
5:53 AM41 °FLight rain. Overcast.6 mph93%30.31 "Hg10 mi
4:53 AM41 °FLight rain. Overcast.5 mph93%30.32 "Hg10 mi
3:53 AM39 °FLight rain. Overcast.No wind96%30.34 "Hg7 mi
Weather by CustomWeather, © 2015

See weather overviewHow to use our weather pages